Location: Colonia Mina de C?rbuni
(46.1667°N, 22.7167°E)
Time: 19:31:17
(UTC+00:00)

Transit 2A Rocket - All Passes

Search period start: 19 April 2024 00:00
Search period end: 29 April 2024 00:00
Orbit: 587 x 907 km, 66.7° (Epoch: 18 April)

Date Brightness Start Highest point End Pass type
(mag) Time Alt. Az. Time Alt. Az. Time Alt. Az.
19 Apr - 09:00:30 10° SE 09:02:23 12° ESE 09:04:18 10° ENE daylight
19 Apr - 10:39:30 10° SW 10:43:59 82° NW 10:48:55 10° NNE daylight
19 Apr - 12:24:12 10° WNW 12:27:20 17° NNW 12:30:40 10° N daylight
19 Apr - 15:56:58 10° NNE 15:57:26 10° NNE 15:57:55 10° NNE daylight
19 Apr - 17:36:57 10° NNW 17:41:45 29° NE 17:46:49 10° ESE daylight
19 Apr - 19:19:06 10° NW 19:24:38 63° WSW 19:30:31 10° SSE visible
19 Apr - 21:05:31 10° W 21:06:13 10° WSW 21:06:55 10° WSW visible
20 Apr - 09:55:44 10° SSW 10:00:06 56° ESE 10:04:52 10° NE daylight
20 Apr - 11:39:07 10° W 11:42:58 25° NW 11:47:05 10° NNE daylight
20 Apr - 16:53:20 10° NNW 16:57:26 21° NE 17:01:43 10° E daylight
20 Apr - 18:35:06 10° NNW 18:40:42 83° NE 18:46:41 10° SE visible
20 Apr - 20:18:51 10° WNW 20:22:40 19° WSW 20:26:36 10° SSW visible
21 Apr - 09:12:27 10° S 09:16:23 31° ESE 09:20:35 10° NE daylight
21 Apr - 10:54:26 10° WSW 10:58:43 38° NW 11:03:22 10° NNE daylight
21 Apr - 12:41:17 10° NW 12:42:46 11° NNW 12:44:17 10° N daylight
21 Apr - 16:09:48 10° N 16:12:59 15° NNE 16:16:15 10° ENE daylight
21 Apr - 17:51:13 10° NNW 17:56:40 53° NE 18:02:28 10° SE visible
21 Apr - 19:34:05 10° NW 19:39:00 31° WSW 19:44:08 10° S visible
22 Apr - 08:29:52 10° SSE 08:32:47 17° ESE 08:35:49 10° ENE daylight
22 Apr - 10:10:07 10° SW 10:14:36 63° NW 10:19:32 10° NNE daylight
22 Apr - 11:55:27 10° WNW 11:58:12 15° NNW 12:01:06 10° N daylight
22 Apr - 15:26:33 10° N 15:28:24 12° NNE 15:30:17 10° NE daylight
22 Apr - 17:07:26 10° NNW 17:12:31 35° NE 17:17:54 10° ESE daylight
22 Apr - 18:49:47 10° NW 18:55:14 50° WSW 19:00:58 10° S visible
23 Apr - 09:26:09 10° SSW 09:30:38 75° ESE 09:35:33 10° NE daylight
23 Apr - 11:10:10 10° W 11:13:45 21° NW 11:17:34 10° NNE daylight
23 Apr - 16:23:44 10° NNW 16:28:14 25° NE 16:32:58 10° E daylight
23 Apr - 18:05:41 10° NW 18:11:20 80° WSW 18:17:20 10° SSE visible
23 Apr - 19:50:10 10° WNW 19:53:06 14° WSW 19:56:07 10° SW visible
24 Apr - 08:42:37 10° S 08:46:49 41° ESE 08:51:24 10° NE daylight
24 Apr - 10:25:17 10° WSW 10:29:25 31° NW 10:33:54 10° NNE daylight
24 Apr - 15:40:08 10° N 15:43:49 18° NNE 15:47:41 10° ENE daylight
24 Apr - 17:21:45 10° NNW 17:27:20 66° NE 17:33:16 10° SE daylight
24 Apr - 19:04:58 10° WNW 19:09:29 24° WSW 19:14:10 10° SSW visible
25 Apr - 07:59:37 10° SSE 08:03:08 23° ESE 08:06:54 10° ENE daylight
25 Apr - 09:40:47 10° SW 09:45:13 49° NW 09:50:06 10° NNE daylight
25 Apr - 11:26:44 10° NW 11:29:03 13° NNW 11:31:27 10° N daylight
25 Apr - 14:56:40 10° N 14:59:17 13° NNE 15:01:59 10° NE daylight
25 Apr - 16:37:54 10° NNW 16:43:13 43° NE 16:48:51 10° ESE daylight
25 Apr - 18:20:29 10° NW 18:25:45 40° WSW 18:31:16 10° S visible
26 Apr - 07:17:43 10° SE 07:19:35 12° ESE 07:21:32 10° ENE daylight
26 Apr - 08:56:37 10° SW 09:01:10 84° NW 09:06:11 10° NNE daylight
26 Apr - 10:41:14 10° WNW 10:44:31 18° NNW 10:48:00 10° N daylight
26 Apr - 14:13:49 10° N 14:14:38 10° NNE 14:15:27 10° NNE daylight
26 Apr - 15:54:08 10° NNW 15:58:59 29° NE 16:04:05 10° ESE daylight
26 Apr - 17:36:16 10° NW 17:41:53 64° WSW 17:47:49 10° SSE daylight
26 Apr - 19:22:14 10° W 19:23:28 11° WSW 19:24:44 10° WSW visible
27 Apr - 08:12:51 10° SSW 08:17:16 55° ESE 08:22:06 10° NE daylight
27 Apr - 09:56:11 10° W 10:00:06 26° NW 10:04:21 10° NNE daylight
27 Apr - 15:10:28 10° NNW 15:14:36 21° NE 15:18:57 10° E daylight
27 Apr - 16:52:15 10° NNW 16:57:56 81° ENE 17:03:57 10° SE daylight
27 Apr - 18:35:57 10° WNW 18:39:54 19° WSW 18:43:57 10° SSW visible
28 Apr - 07:29:33 10° S 07:33:30 30° ESE 07:37:46 10° NE daylight
28 Apr - 09:11:29 10° WSW 09:15:49 39° NW 09:20:36 10° NNE daylight
28 Apr - 10:58:08 10° NW 10:59:53 12° NNW 11:01:40 10° N daylight
28 Apr - 14:26:54 10° N 14:30:07 15° NNE 14:33:27 10° ENE daylight
28 Apr - 16:08:21 10° NNW 16:13:51 53° NE 16:19:40 10° SE daylight
28 Apr - 17:51:12 10° NW 17:56:12 31° WSW 18:01:24 10° S daylight
